Temp
-7 -7 -8 -7 -7 -7 -8 -8 -8 -8 -8 -8 -8 -8 -8 -8 -7 -7 -7 -7 -7 -7 -7 -8 -8 -8 -7 -7 -7 -7 -6 -6 -6 -6 -6 -5 -6 -6 -6 -6 -6 -6 -7
-6 -7 -9 -9 -8 -8 -8 -9 -8 -8 -8 -8 -7 -7 -7 -7 -7 -7 -7 -8 -8 -8 -8 -8 -8 -6 -6 -7 -6 -7 -7 -6 -7 -7 -7 -7 -6 -6 -6 -6 -6 -7 -6
-7 -8 -9 -9 -9 -9 -10 -9 -9 -9 -8 -8 -7 -7 -7 -8 -8 -8 -9 -8 -7 -7 -7 -8 -7 -7 -7 -7 -7 -5 -6 -7 -7 -7 -7 -7 -7 -6 -6 -7 -7 -6 -7
-8 -9 -9 -9 -10 -10 -9 -9 -9 -8 -8 -8 -7 -7 -8 -8 -8 -8 -8 -8 -7 -7 -7 -7 -7 -7 -7 -7 -7 -7 -7 -7 -7 -7 -7 -7 -6 -6 -6 -7 -7 -7 -6
-9 -9 -9 -9 -9 -9 -9 -9 -9 -9 -8 -8 -8 -8 -8 -8 -8 -8 -7 -7 -7 -7 -7 -7 -7 -7 -7 -6 -7 -7 -7 -7 -6 -7 -7 -6 -5 -7 -7 -7 -7 -7 -7
-8 -9 -9 -9 -8 -8 -8 -8 -8 -9 -8 -8 -8 -8 -8 -7 -7 -7 -7 -7 -7 -7 -6 -6 -6 -6 -7 -7 -6 -6 -7 -7 -7 -6 -7 -7 -6 -7 -7 -7 -7 -8 -8
-8 -9 -9 -9 -8 -8 -7 -7 -7 -7 -7 -8 -7 -7 -7 -7 -7 -7 -7 -7 -7 -7 -7 -6 -6 -6 -6 -6 -7 -6 -6 -6 -6 -6 -6 -6 -6 -6 -6 -8 -7 -8 -9
-8 -9 -9 -9 -8 -8 -7 -7 -7 -7 -7 -7 -7 -7 -8 -8 -7 -7 -6 -6 -6 -6 -6 -6 -6 -6 -6 -6 -6 -6 -6 -6 -6 -6 -6 -6 -6 -6 -6 -6 -8 -8 -9
-8 -8 -8 -9 -8 -8 -7 -7 -7 -7 -8 -8 -7 -7 -8 -7 -7 -7 -6 -6 -6 -6 -6 -6 -6 -6 -6 -6 -6 -6 -7 -6 -7 -7 -7 -6 -6 -6 -7 -6 -7 -8 -8
-8 -8 -8 -8 -8 -8 -8 -7 -8 -8 -7 -7 -8 -8 -7 -7 -7 -7 -7 -7 -7 -7 -7 -6 -6 -6 -6 -6 -6 -6 -7 -7 -7 -7 -7 -7 -7 -7 -7 -7 -6 -7 -8
-9 -9 -9 -8 -8 -8 -7 -7 -7 -7 -7 -8 -8 -7 -7 -7 -7 -7 -7 -7 -7 -7 -7 -7 -6 -6 -6 -6 -6 -7 -7 -7 -7 -7 -7 -8 -8 -7 -7 -7 -8 -8 -9
-9 -9 -9 -8 -8 -8 -8 -8 -8 -7 -8 -8 -8 -7 -7 -7 -7 -6 -6 -6 -6 -7 -7 -7 -6 -6 -6 -6 -6 -6 -6 -7 -7 -7 -8 -8 -8 -8 -8 -8 -8 -8 -9
-9 -9 -9 -8 -8 -8 -8 -8 -8 -8 -7 -7 -7 -7 -7 -7 -7 -7 -7 -7 -7 -7 -7 -7 -7 -6 -7 -7 -7 -7 -7 -7 -7 -7 -7 -7 -8 -8 -8 -8 -8 -9 -9
-8 -9 -8 -8 -8 -8 -8 -8 -8 -8 -8 -7 -7 -7 -7 -7 -7 -7 -7 -7 -7 -7 -7 -7 -7 -7 -7 -7 -7 -7 -7 -7 -7 -7 -7 -7 -8 -8 -8 -8 -9 -9 -9
-8 -8 -7 -7 -8 -8 -8 -8 -8 -8 -7 -7 -7 -7 -7 -7 -7 -7 -7 -7 -7 -7 -7 -7 -7 -7 -7 -7 -7 -7 -7 -7 -7 -7 -8 -8 -8 -8 -8 -8 -8 -9 -9
-9 -8 -9 -8 -8 -8 -8 -8 -8 -7 -7 -7 -7 -7 -7 -7 -7 -7 -7 -7 -7 -7 -7 -7 -7 -7 -7 -7 -8 -7 -7 -8 -8 -8 -8 -8 -8 -8 -9 -9 -8 -9 -9
-9 -10 -9 -9 -9 -8 -8 -8 -8 -7 -7 -7 -8 -8 -7 -7 -7 -7 -7 -7 -7 -7 -7 -8 -8 -8 -8 -8 -8 -8 -8 -8 -8 -8 -8 -8 -8 -8 -9 -9 -9 -9 -9
-9 -10 -8 -9 -9 -9 -8 -8 -8 -8 -8 -8 -8 -7 -8 -8 -7 -7 -7 -8 -8 -8 -8 -8 -8 -8 -8 -8 -8 -8 -9 -9 -9 -9 -9 -9 -9 -9 -9 -9 -9 -9 -9
-10 -8 -7 -8 -9 -8 -8 -8 -8 -8 -8 -8 -8 -8 -8 -8 -8 -8 -8 -8 -8 -8 -8 -8 -8 -8 -8 -9 -9 -9 -9 -9 -9 -9 -9 -9 -9 -9 -9 -9 -9 -9 -9
-8 -8 -7 -8 -8 -8 -8 -8 -7 -7 -7 -8 -7 -7 -7 -7 -8 -8 -8 -8 -8 -8 -8 -8 -8 -9 -9 -9 -10 -10 -10 -10 -10 -10 -10 -10 -10 -10 -10 -10 -10 -10 -10
-8 -8 -8 -7 -7 -7 -7 -7 -7 -7 -7 -7 -7 -7 -7 -7 -8 -8 -8 -8 -8 -8 -9 -9 -9 -9 -10 -10 -10 -10 -10 -10 -11 -11 -11 -11 -11 -11 -11 -11 -11 -11 -11
-7 -7 -7 -7 -7 -7 -7 -7 -7 -7 -7 -7 -7 -7 -7 -8 -8 -8 -8 -9 -9 -9 -9 -9 -10 -10 -10 -11 -11 -11 -11 -11 -11 -11 -12 -12 -12 -12 -12 -12 -12 -12 -12
-8 -8 -8 -8 -7 -7 -8 -8 -8 -7 -7 -7 -7 -8 -8 -9 -9 -9 -9 -9 -9 -9 -10 -10 -10 -11 -11 -11 -11 -11 -12 -12 -12 -12 -12 -12 -12 -12 -12 -13 -13 -13 -13
-8 -8 -8 -8 -8 -8 -8 -8 -8 -8 -8 -7 -8 -8 -9 -9 -9 -9 -9 -9 -10 -10 -10 -11 -11 -11 -11 -12 -12 -12 -12 -12 -13 -12 -12 -12 -13 -13 -13 -14 -14 -14 -14
-9 -9 -8 -8 -8 -8 -8 -8 -8 -8 -8 -8 -8 -9 -9 -9 -9 -9 -9 -10 -10 -11 -11 -11 -12 -12 -12 -12 -13 -13 -13 -13 -13 -13 -13 -13 -14 -14 -14 -15 -15 -15 -15
-9 -9 -8 -8 -8 -8 -8 -8 -8 -8 -8 -8 -8 -9 -9 -9 -10 -10 -10 -10 -11 -11 -11 -12 -12 -12 -12 -13 -13 -14 -14 -14 -14 -14 -15 -15 -15 -15 -16 -16 -16 -16 -16
Height
5914 5913 5915 5916 5915 5914 5915 5917 5919 5921 5923 5926 5928 5929 5929 5932 5934 5933 5933 5931 5930 5928 5926 5923 5921 5917 5916 5915 5914 5914 5912 5912 5911 5909 5910 5911 5910 5909 5908 5908 5908 5907 5907
5918 5912 5911 5912 5914 5912 5913 5915 5917 5920 5924 5927 5929 5929 5929 5932 5931 5931 5930 5927 5923 5922 5921 5918 5916 5909 5910 5909 5907 5907 5906 5905 5906 5904 5902 5902 5903 5903 5903 5902 5902 5901 5901
5915 5911 5909 5911 5913 5912 5914 5915 5917 5920 5923 5926 5928 5928 5928 5929 5928 5927 5927 5923 5922 5919 5917 5916 5913 5909 5907 5904 5901 5898 5898 5900 5899 5898 5897 5895 5893 5893 5896 5896 5895 5895 5894
5911 5909 5910 5911 5913 5912 5915 5915 5916 5919 5921 5924 5925 5925 5925 5925 5924 5923 5923 5920 5918 5916 5913 5912 5909 5906 5903 5901 5899 5897 5897 5897 5894 5892 5890 5888 5885 5883 5886 5889 5888 5888 5889
5909 5909 5908 5911 5912 5911 5914 5914 5915 5917 5919 5922 5922 5921 5922 5920 5919 5919 5919 5918 5916 5913 5911 5908 5906 5904 5900 5898 5896 5894 5893 5891 5890 5887 5883 5880 5875 5873 5875 5878 5881 5882 5883
5906 5907 5908 5909 5911 5910 5913 5913 5914 5915 5916 5918 5919 5918 5918 5918 5917 5916 5915 5913 5911 5909 5907 5905 5902 5899 5897 5894 5892 5890 5888 5886 5884 5881 5878 5875 5868 5864 5867 5869 5871 5871 5875
5908 5905 5908 5907 5909 5908 5912 5914 5915 5915 5915 5915 5917 5917 5915 5915 5913 5912 5910 5908 5907 5905 5903 5902 5899 5897 5894 5891 5888 5886 5884 5882 5881 5879 5876 5871 5867 5867 5865 5864 5862 5862 5862
5908 5904 5906 5905 5907 5908 5910 5912 5914 5915 5914 5913 5913 5914 5912 5910 5909 5908 5907 5904 5903 5901 5899 5897 5894 5893 5891 5888 5886 5882 5879 5878 5876 5874 5872 5869 5864 5861 5860 5859 5857 5855 5857
5905 5904 5904 5905 5906 5908 5909 5910 5911 5912 5912 5912 5911 5909 5909 5907 5906 5904 5902 5901 5899 5897 5894 5892 5890 5888 5886 5883 5881 5878 5875 5873 5871 5868 5865 5863 5862 5859 5856 5853 5851 5851 5852
5901 5900 5901 5905 5906 5906 5907 5908 5908 5909 5909 5909 5907 5905 5905 5903 5901 5900 5898 5896 5894 5891 5890 5887 5885 5882 5879 5877 5874 5871 5868 5866 5864 5862 5860 5858 5855 5854 5851 5850 5849 5846 5846
5896 5895 5899 5904 5904 5903 5903 5903 5904 5905 5906 5905 5903 5902 5901 5899 5897 5896 5894 5892 5889 5886 5883 5881 5879 5876 5874 5871 5868 5865 5861 5859 5858 5856 5854 5851 5849 5847 5845 5844 5844 5843 5842
5893 5893 5897 5899 5900 5900 5900 5900 5900 5900 5900 5899 5900 5898 5897 5896 5894 5891 5888 5885 5882 5880 5878 5875 5872 5869 5867 5864 5861 5859 5856 5853 5850 5849 5846 5844 5842 5840 5838 5838 5837 5836 5836
5889 5893 5892 5894 5895 5897 5897 5897 5897 5898 5898 5896 5895 5894 5892 5890 5887 5884 5881 5879 5877 5874 5871 5868 5865 5862 5859 5857 5854 5852 5849 5846 5843 5841 5839 5836 5834 5832 5831 5830 5829 5829 5829
5885 5888 5886 5889 5893 5892 5892 5893 5893 5893 5892 5892 5891 5889 5886 5884 5881 5879 5876 5873 5870 5867 5864 5861 5858 5855 5853 5850 5846 5844 5841 5839 5836 5833 5830 5828 5825 5823 5822 5821 5821 5820 5820
5881 5884 5885 5888 5888 5889 5888 5888 5888 5889 5888 5886 5884 5883 5881 5878 5875 5873 5870 5866 5863 5860 5857 5854 5851 5848 5845 5842 5839 5835 5833 5829 5827 5824 5822 5819 5816 5815 5813 5811 5811 5809 5810
5879 5881 5883 5885 5885 5884 5885 5884 5884 5883 5881 5879 5878 5877 5874 5870 5868 5865 5862 5859 5856 5852 5849 5847 5843 5840 5837 5834 5831 5828 5824 5821 5818 5816 5814 5811 5808 5806 5804 5802 5800 5799 5798
5873 5873 5871 5876 5881 5881 5879 5878 5876 5874 5872 5871 5871 5869 5867 5864 5861 5858 5855 5851 5849 5845 5842 5840 5836 5833 5830 5827 5824 5820 5816 5813 5810 5807 5805 5803 5801 5799 5796 5794 5791 5789 5787
5862 5855 5857 5868 5871 5872 5872 5871 5871 5870 5870 5869 5868 5864 5862 5859 5855 5851 5847 5844 5842 5838 5835 5832 5829 5826 5823 5819 5817 5813 5809 5806 5803 5800 5797 5794 5792 5790 5787 5784 5781 5778 5776
5853 5846 5856 5860 5863 5867 5867 5867 5867 5866 5865 5863 5860 5857 5854 5850 5847 5843 5840 5837 5834 5830 5827 5824 5820 5817 5814 5811 5808 5805 5801 5798 5794 5790 5787 5784 5780 5777 5774 5772 5770 5767 5764
5857 5855 5857 5859 5861 5862 5862 5862 5860 5858 5856 5853 5851 5848 5844 5840 5837 5834 5831 5828 5824 5821 5818 5814 5811 5808 5804 5801 5798 5795 5792 5788 5784 5780 5776 5772 5768 5765 5761 5758 5755 5752 5749
5855 5856 5858 5858 5857 5857 5856 5853 5851 5851 5849 5846 5844 5840 5836 5832 5829 5826 5822 5818 5815 5812 5808 5805 5802 5799 5796 5792 5789 5785 5781 5777 5773 5769 5764 5761 5757 5753 5749 5744 5740 5736 5733
5849 5850 5851 5851 5852 5850 5847 5846 5846 5844 5841 5837 5835 5832 5827 5823 5819 5815 5812 5809 5806 5802 5799 5796 5792 5789 5786 5782 5778 5774 5770 5765 5760 5755 5750 5745 5741 5737 5733 5728 5725 5720 5716
5840 5841 5842 5841 5841 5840 5840 5838 5837 5835 5833 5830 5826 5822 5818 5814 5810 5806 5802 5798 5795 5792 5789 5786 5782 5779 5775 5770 5766 5762 5758 5753 5747 5742 5736 5730 5724 5720 5715 5710 5705 5700 5696
5831 5832 5830 5830 5831 5831 5829 5828 5826 5825 5824 5822 5818 5813 5809 5804 5801 5797 5794 5791 5787 5783 5779 5775 5772 5768 5763 5758 5754 5749 5744 5738 5732 5725 5720 5714 5708 5703 5698 5693 5688 5683 5679
5822 5823 5823 5824 5823 5822 5821 5820 5818 5816 5814 5812 5808 5803 5799 5796 5792 5788 5783 5779 5775 5772 5769 5765 5761 5756 5751 5746 5741 5735 5729 5723 5716 5709 5702 5696 5691 5685 5681 5676 5671 5667 5662
5817 5816 5816 5814 5815 5814 5813 5812 5810 5808 5806 5801 5797 5792 5788 5785 5782 5778 5774 5770 5766 5762 5758 5753 5749 5744 5738 5732 5726 5719 5712 5705 5699 5693 5686 5680 5674 5668 5663 5658 5653 5648 5644
Wind_Speed
11 7 4 6 1 11 21 18 15 12 11 9 8 9 9 8 7 10 12 14 16 16 16 17 19 22 23 23 24 22 21 21 22 24 23 22 22 23 23 23 25 27 28
10 7 5 7 6 3 20 19 15 13 10 7 7 8 8 7 10 12 13 20 23 23 21 22 21 27 26 29 31 28 28 26 24 27 29 29 29 29 28 26 27 25 26
6 5 4 3 3 4 6 12 11 10 9 7 6 6 6 8 8 11 9 11 17 19 14 9 10 10 5 13 16 28 32 33 33 32 36 35 36 37 34 30 29 29 28
7 6 5 2 2 3 4 7 8 7 6 5 5 8 6 7 10 13 10 16 17 15 17 13 14 12 11 14 15 10 9 13 14 17 22 31 47 50 43 36 32 32 31
7 6 6 5 4 3 6 7 6 5 5 6 7 7 8 9 12 13 13 13 14 15 16 18 15 14 16 15 17 16 14 16 17 18 23 30 32 49 48 41 36 35 32
6 6 7 6 6 3 1 2 3 6 5 5 8 10 11 11 13 15 16 17 16 16 15 13 16 17 16 18 18 20 20 19 20 21 23 26 25 22 46 48 42 39 31
3 6 3 5 6 3 1 1 1 2 3 4 7 8 12 13 15 17 18 17 16 15 17 16 17 18 19 21 21 20 20 21 22 22 23 24 22 19 16 27 35 44 38
3 6 2 4 4 3 2 3 5 6 5 7 9 9 12 15 16 15 15 15 15 16 19 20 21 22 22 21 22 24 24 23 23 23 25 25 24 23 24 23 26 32 38
2 3 4 5 6 4 4 5 7 8 8 9 10 11 12 11 12 14 16 17 18 18 20 22 23 23 24 24 25 26 28 28 26 25 25 26 27 27 25 27 19 25 35
4 5 6 4 6 6 7 8 8 9 11 11 12 12 13 14 14 15 17 18 19 20 22 23 24 26 27 29 30 29 30 30 30 27 27 27 27 26 27 23 22 20 20
5 4 7 9 7 5 6 8 12 13 13 13 14 13 14 14 15 17 19 19 20 22 24 25 25 27 27 27 27 28 30 32 31 30 30 30 28 28 27 27 23 22 17
9 9 12 12 10 9 8 9 12 14 14 12 11 13 16 17 17 17 19 21 23 24 24 25 26 27 27 28 28 28 29 31 33 32 31 31 31 30 29 26 26 24 22
13 15 14 14 12 11 10 10 12 14 13 12 13 14 17 18 20 23 24 24 24 24 24 25 25 26 28 28 29 29 30 30 32 32 32 33 33 33 31 30 29 28 29
23 21 17 17 16 12 11 12 13 14 14 15 17 19 21 22 24 27 27 26 26 25 25 25 25 26 27 30 32 32 32 32 32 33 34 34 33 34 35 35 34 34 32
29 28 18 20 21 16 15 15 16 15 17 18 21 23 24 25 26 27 28 27 26 26 26 25 26 27 29 30 31 31 32 33 31 29 31 33 33 33 33 34 35 37 38
32 31 28 22 27 20 18 18 17 17 19 21 23 25 26 27 27 27 28 29 28 27 27 28 28 30 31 30 30 31 32 32 30 28 27 28 30 31 30 32 33 34 34
38 41 40 26 31 30 24 21 20 20 20 22 24 26 27 27 28 29 29 28 28 27 27 28 29 29 29 29 30 29 29 30 31 31 30 29 28 29 31 32 34 35 35
20 35 45 33 23 23 24 22 21 21 22 23 26 27 27 29 30 30 30 28 28 28 29 29 30 30 29 30 30 30 31 32 33 34 35 37 37 37 37 38 39 40 39
12 2 23 23 24 20 19 19 20 20 22 23 25 26 28 30 31 30 29 29 29 29 30 31 31 31 31 31 32 33 33 34 35 37 38 39 41 42 41 41 42 43 44
11 10 13 15 15 16 16 19 19 20 22 24 26 28 29 31 31 31 31 31 32 32 32 33 33 34 34 35 36 37 38 37 37 39 40 41 42 44 45 45 45 45 44
11 10 12 12 13 15 18 18 18 21 24 26 28 30 32 33 33 32 33 34 34 34 34 35 35 36 36 38 39 39 39 40 41 42 44 45 46 46 47 48 49 50 50
12 13 14 15 17 18 18 18 21 23 24 25 29 32 34 34 33 33 33 35 35 36 37 37 37 37 39 40 41 42 42 44 46 49 50 50 51 51 52 52 53 53 53
15 15 16 16 19 20 20 21 22 24 26 29 32 34 35 35 35 34 34 35 35 36 37 38 39 41 43 44 46 46 47 49 51 52 53 53 52 52 52 52 52 53 54
17 19 19 20 21 22 23 25 25 26 29 33 35 36 35 35 35 36 36 37 38 38 38 39 40 42 45 47 49 50 51 53 54 52 51 52 53 52 51 50 49 47 47
20 21 22 22 23 25 25 26 27 28 31 34 36 36 36 36 37 37 37 38 39 39 40 42 43 46 47 49 51 53 56 55 54 54 54 52 51 51 49 49 49 49 49
25 23 25 25 27 26 28 29 30 31 35 36 36 35 36 37 39 40 40 39 40 41 42 43 45 47 50 52 55 57 57 57 55 53 52 53 52 51 50 49 48 48 49
Wind_Direction
174 143 64 39 285 230 212 213 212 219 224 235 250 261 270 286 309 319 317 310 302 294 289 289 289 279 275 277 275 271 270 270 268 275 275 272 264 262 264 265 264 266 267
218 142 99 57 40 62 211 212 209 214 224 241 258 264 283 319 321 322 324 326 292 278 283 276 329 280 264 272 270 272 267 266 268 273 277 273 267 263 259 263 266 261 263
180 122 80 77 77 93 201 209 216 226 231 243 262 277 308 321 318 307 342 11 353 333 319 316 344 22 10 348 322 266 261 262 269 268 272 272 272 269 263 258 258 261 261
112 72 60 1 231 187 203 201 202 224 237 249 273 283 296 301 290 296 310 311 331 337 326 322 323 326 321 324 333 340 323 308 309 300 288 288 259 262 263 258 257 258 260
109 58 40 352 302 246 223 213 211 215 236 249 264 290 290 300 300 304 310 317 313 317 320 316 318 313 311 313 313 317 315 310 308 303 313 317 282 251 254 255 256 261 259
121 56 6 339 326 1 343 278 186 221 248 267 285 291 295 306 312 308 306 311 317 317 323 322 322 325 322 317 309 304 305 308 305 310 314 317 335 274 245 254 256 252 256
108 87 356 345 304 341 6 334 291 261 278 288 295 302 310 309 307 308 310 314 318 316 315 319 314 313 312 314 310 306 305 303 300 302 306 308 317 318 305 273 281 274 248
140 91 36 345 297 307 301 308 301 299 300 298 303 311 306 303 304 307 309 312 314 315 312 315 314 313 312 308 303 302 302 302 304 304 302 300 304 309 313 315 276 264 265
297 55 32 337 302 287 280 285 292 295 298 300 305 304 297 297 302 304 305 308 309 311 312 312 309 307 306 304 304 304 303 301 302 304 303 298 298 299 303 308 308 261 260
299 333 349 298 264 255 268 275 272 288 299 305 300 301 302 297 295 299 306 306 303 305 305 303 302 302 302 302 301 301 299 299 299 298 295 293 295 295 296 296 295 296 280
291 313 315 292 283 286 286 309 315 306 298 290 291 295 293 296 303 302 300 301 307 306 304 304 304 303 301 300 299 301 299 296 295 294 294 293 292 292 294 295 296 291 289
269 269 272 282 295 300 303 298 289 281 278 280 283 292 298 300 303 307 310 312 310 307 305 304 304 302 300 299 297 296 296 297 296 295 292 290 289 289 289 289 288 286 281
244 252 261 268 283 296 287 275 279 282 283 290 294 296 301 307 314 317 315 312 307 304 304 303 303 302 302 300 296 295 293 292 293 294 292 290 289 287 285 283 281 278 275
244 248 249 261 268 271 263 267 268 274 286 294 300 307 309 314 315 311 310 308 307 305 303 302 302 303 302 301 300 298 297 296 294 291 291 291 291 286 282 280 278 275 274
255 257 257 262 261 264 258 261 266 279 287 295 303 306 309 310 308 308 307 308 306 304 304 304 304 304 304 303 301 300 300 299 299 297 296 294 291 288 286 283 280 278 278
274 275 269 272 265 251 258 260 266 276 284 293 298 299 300 303 306 307 307 307 306 305 306 306 307 308 308 305 302 300 300 300 303 305 300 297 297 294 289 286 284 280 277
261 262 267 252 265 256 243 251 261 270 280 286 293 297 300 305 305 307 306 305 303 303 304 305 306 307 306 303 303 303 302 300 299 301 303 300 298 296 295 294 291 287 284
258 270 248 235 218 225 241 256 269 282 291 296 298 300 304 305 307 307 306 305 304 304 304 304 306 307 306 305 303 301 301 300 299 298 297 297 295 294 293 292 290 288 286
278 282 190 207 222 238 254 268 278 289 294 296 297 301 303 306 308 307 306 304 303 304 304 305 305 305 305 305 304 304 302 300 299 298 298 298 297 296 294 291 289 287 286
224 211 212 224 241 254 268 274 283 288 289 293 299 303 306 306 306 305 304 304 304 304 304 305 305 305 305 305 305 304 303 302 301 302 301 299 298 296 295 294 292 290 287
229 237 248 257 264 271 272 281 287 292 298 303 305 306 307 307 306 306 305 305 304 303 302 303 302 302 302 303 304 304 303 302 302 301 300 297 295 294 292 291 292 291 289
231 247 254 263 271 279 286 289 291 295 300 305 308 310 309 307 304 302 302 301 301 301 301 301 300 299 300 303 304 304 302 302 303 304 302 300 298 296 295 293 290 287 285
236 246 257 271 284 288 285 288 294 302 308 311 310 308 305 302 300 300 299 298 298 298 299 299 298 299 301 304 304 304 303 303 304 303 302 300 299 298 297 295 293 290 288
258 262 268 277 284 287 291 294 298 305 309 309 308 306 302 299 298 299 300 301 302 301 299 299 299 301 302 304 304 304 304 304 304 303 303 302 300 297 295 293 290 288 287
266 271 278 283 285 285 286 288 295 300 304 306 308 305 302 300 300 300 301 301 301 302 303 303 302 303 304 305 305 307 307 307 307 306 305 304 302 299 296 293 289 287 286
272 273 275 276 279 280 285 291 294 300 306 306 304 302 301 302 303 304 304 304 303 302 301 301 302 304 305 305 306 307 308 309 308 306 305 305 302 299 297 295 293 291 289